Simultaneous Nadir Overpasses (SNOs) Predictions

Prediction of SNOs between METOP-B and TERRA Satellite Orbit:

Table of predicted SNOs for the next 14.0 days since TLE Epoch: 11/10/2013
Index Date (METOP-B) Time (METOP-B) Lat,Lon (METOP-B) SZA (METOP-B ) Date (TERRA) Time (TERRA) Lat,Lon (TERRA) SZA (TERRA ) Distance(km) Time Diff (sec)
1 11/10/2013 04:49:45 81.28, 154.26 101.52 11/10/2013 04:49:26 81.27, 154.38 101.52 2.06 19
2 11/12/2013 23:33:30 -81.27, 53.17 77.76 11/12/2013 23:34:14 -81.28, 53.22 77.73 0.99 44
3 11/13/2013 00:24:10 81.28,-139.12 102.30 11/13/2013 00:23:40 81.28,-139.05 102.29 1.18 30
4 11/15/2013 19:07:57 -81.27, 119.41 77.07 11/15/2013 19:08:29 -81.27, 119.54 77.04 2.30 32
5 11/15/2013 19:58:36 81.28, -72.56 103.03 11/15/2013 19:57:54 81.29, -72.38 103.04 3.26 42
6 11
